Lethbridge,

7:08 AM MDT on August 23, 2017 (GMT -0600)
Lethbridge

Weather History for CYQL - January, 2013

Change the Weather History Date:

Wednesday, January 9, 2013

  Actual Average Record
Temperature  
Mean Temperature 34 °F -  
Max Temperature 48 °F 25 °F 53 °F (2012)
Min Temperature 20 °F 4 °F -36 °F (2013)
Degree Days  
Heating Degree Days 31    
Moisture  
Dew Point 26 °F    
Average Humidity 62    
Maximum Humidity 93    
Minimum Humidity 25    
Precipitation  
Precipitation 0.00 in - - ()
Sea Level Pressure  
Sea Level Pressure 29.62 in    
Wind  
Wind Speed 18 mph ()    
Max Wind Speed 41 mph    
Max Gust Speed 51 mph    
Visibility 10.8 miles    
Events      
Averages and records for this station are not official NWS values.
T = Trace of Precipitation, MM = Missing Value Source: Averaged Metar Reports

Daily Weather History Graph

Daily Weather History Graph

Search for Another Location

Airport or City:

Trip Planner

Search our weather history database for the weather conditions in past years. The results will help you decide how hot, cold, wet, or windy it might be!

Date:

Astronomy

Jan. 09, 2013 Rise Set
Actual Time 8:25 AM MST 4:51 PM MST
Civil Twilight 7:48 AM MST 5:28 PM MST
Nautical Twilight 7:08 AM MST 6:09 PM MST
Astronomical Twilight 6:29 AM MST 6:47 PM MST
Moon 6:09 AM MST (1/9) 2:56 PM MST (1/9)
Length of Visible Light 9h 40m
Length of Day
8h 25m
Waning Crescent, 6% of the Moon is Illuminated
Jan 9
Waning Crescent
Jan 11
New
Jan 18
First Quarter
Jan 26
Full
Feb 3
Last Quarter

Hourly Weather History & Observations

Time (MST) Temp. Windchill Dew Point Humidity Pressure Visibility Wind Dir Wind Speed Gust Speed Precip Events Conditions
12:00 AM 26.6 °F 19.1 °F 19.4 °F 74% 29.78 in 9.0 mi ESE 6.9 mph - N/A   Mostly Cloudy
1:00 AM 21.2 °F 9.5 °F 17.6 °F 86% 29.74 in 9.0 mi SE 11.5 mph - N/A   Clear
2:00 AM 23.0 °F 13.1 °F 21.2 °F 93% 29.71 in 9.0 mi ESE 9.2 mph - N/A   Clear
3:00 AM 26.6 °F 17.5 °F 24.8 °F 93% 29.67 in 9.0 mi SW 9.2 mph - N/A   Mostly Cloudy
3:39 AM 42.8 °F 34.0 °F 28.4 °F 57% 29.62 in 9.0 mi SW 20.7 mph - N/A   Mostly Cloudy
4:00 AM 42.8 °F 34.5 °F 28.4 °F 57% 29.62 in 9.0 mi SW 18.4 mph 27.6 mph N/A   Mostly Cloudy
5:00 AM 44 °F - 30 °F 46% 29.61 in 10 mi SW 19.6 mph - -  
5:00 AM 44.6 °F 35.3 °F 30.2 °F 57% 29.61 in 9.0 mi SW 26.5 mph - N/A   Clear
6:00 AM 42.8 °F 33.8 °F 28.4 °F 57% 29.60 in 15.0 mi SW 21.9 mph 28.8 mph N/A   Mostly Cloudy
7:00 AM 46.4 °F 35.7 °F 24.8 °F 43% 29.58 in 15.0 mi SW 41.4 mph 50.6 mph N/A   Mostly Cloudy
8:00 AM 46.4 °F 37.0 °F 24.8 °F 43% 29.62 in 40.0 mi SW 31.1 mph 46.0 mph N/A   Mostly Cloudy
9:00 AM 46.4 °F 36.9 °F 23.0 °F 40% 29.63 in 40.0 mi SW 32.2 mph 41.4 mph N/A   Overcast
10:00 AM 48.2 °F - 19.4 °F 32% 29.64 in 40.0 mi SW 28.8 mph 40.3 mph N/A   Overcast
11:00 AM 48 °F - 24 °F 25% 29.63 in 10 mi SW 35.7 mph - -  
12:00 PM 46.4 °F 36.0 °F 26.6 °F 46% 29.59 in 40.0 mi SW 39.1 mph 49.5 mph N/A   Overcast
1:00 PM 46.4 °F 37.5 °F 28.4 °F 50% 29.59 in 30.0 mi SW 27.6 mph 43.7 mph N/A   Overcast
2:00 PM 44.6 °F 34.9 °F 30.2 °F 57% 29.59 in 30.0 mi SW 28.8 mph 35.7 mph N/A   Overcast
3:00 PM 46.4 °F 38.7 °F 30.2 °F 53% 29.57 in 30.0 mi SW 20.7 mph 28.8 mph N/A   Mostly Cloudy
4:00 PM 42.8 °F 34.3 °F 32.0 °F 66% 29.54 in 30.0 mi SSW 19.6 mph 25.3 mph N/A   Mostly Cloudy
5:00 PM 43 °F - 31 °F 52% 29.51 in 10 mi SW 24.2 mph - -  
5:00 PM 42.8 °F 33.5 °F 32.0 °F 66% 29.51 in 25.0 mi SW 23.0 mph 33.4 mph N/A   Mostly Cloudy
6:00 PM 42.8 °F 34.3 °F 30.2 °F 61% 29.52 in 15.0 mi SW 19.6 mph 26.5 mph N/A   Mostly Cloudy
8:00 PM 41.0 °F 32.2 °F 32.0 °F 70% 29.54 in 15.0 mi SW 18.4 mph - N/A   Partly Cloudy
9:00 PM 39.2 °F 31.2 °F 32.0 °F 75% 29.58 in 15.0 mi SW 13.8 mph - N/A   Mostly Cloudy
10:00 PM 37.4 °F 29.8 °F 30.2 °F 75% 29.59 in 15.0 mi SSW 11.5 mph 17.3 mph N/A   Partly Cloudy
10:52 PM 26.6 °F 12.0 °F 21.2 °F 80% 29.69 in 9.0 mi North 23.0 mph - N/A   Mostly Cloudy
11:00 PM 25 °F - 21 °F 79% 29.70 in 9 mi North 20.7 mph - -  
11:00 PM 24.8 °F 11.1 °F 21.2 °F 86% 29.70 in 9.0 mi North 18.4 mph 28.8 mph N/A   Mostly Cloudy
11:17 PM 24.8 °F 10.3 °F 21.2 °F 86% 29.73 in 6.0 mi North 20.7 mph 29.9 mph N/A   Mostly Cloudy